Starlink 30209

operational
NORAD ID: 57307 Int'l Des: 2023-096 Owner: SPXS Country: US Constellation: starlink
LEOCIRCULAR

About Starlink 30209

Description loading...

Live Position

Loading 3D Globe...

Upcoming Passes

Altitude History

Altitude vs Time

uPlot chart will show altitude changes over time

Two-Line Element Set

1 57307U 23096T 25308.32041564 .00111637 00000-0 34653-2 0 9997
2 57307 42.9878 160.1150 0029325 243.0728 116.7127 15.31858606128147
Epoch: Nov 4, 2025 • Age: 11 hours

Current Status

Altitude 479.4 km
Velocity 7.62 km/s
Sub-Earth Point 4.33°N, 162.18°W
Launch Date Jul 10, 2023
Age 2.3 years
Type internet

Technical Details

Classification Payload
Mass 730.00 kg
Dry Mass 700.00 kg
Total Mass 730.00 kg
Length 0.30 m
Diameter 4.10 m
Span 29.00 m
Shape Box + pan
Manufacturer SPXS
Bus Type Starlink V2M
Phase Status In Orbit
Owner/State SPXS/US

Large Constellations

Loading constellations...